Location: G�ppingen
(48.7000°N, 9.6670°E)
Time: 08:12:46
(UTC+01:00)

Tiangong 2 - Visible Passes

Search period start: 16 December 2017 00:00
Search period end: 26 December 2017 00:00
Orbit: 386 x 390 km, 42.8° (Epoch: 15 December)

Date Brightness Start Highest point End Pass type
(mag) Time Alt. Az. Time Alt. Az. Time Alt. Az.
23 Dec 3.9 19:05:05 10° SSW 19:05:42 13° SSW 19:05:42 13° SSW visible
24 Dec 3.4 18:07:19 10° SSW 18:09:08 14° SSE 18:09:59 13° SE visible
25 Dec 3.0 18:44:23 10° SW 18:46:31 23° S 18:46:31 23° S visible
